Location: Cherry Springs State Park
(41.6616°N, 77.8240°W)
Time: 17:47:38
(UTC-04:00)

Amateur Radio Satellites - All Passes

Search period start: 31 August 2015 17:17
Search period end: 01 September 2015 17:17
Location: Cherry Springs State Park, 41.6616°N, 77.8240°W

Satellite Date Start Highest point End Downlink Frequencies (MHz)
Time Altitude Azimuth
AIST 2 31 Aug 17:22:48 17:27:01 63° 305° (NW) 17:31:15 435.215
STARS 31 Aug 17:45:18 17:48:55 24° 293° (WNW) 17:52:24 437.465
CUTE-I 31 Aug 17:48:35 17:53:09 31° 67° (ENE) 17:57:49 437.470
KKS-1 31 Aug 18:05:35 18:06:23 10° 299° (WNW) 18:06:56 437.445
Cosmos 2499 31 Aug 18:08:56 18:14:38 19° 281° (W) 18:19:42 435.465 / 435.565
MOZHAYETS 4 31 Aug 18:12:16 18:16:41 47° 287° (WNW) 18:21:02
RS-15 31 Aug 18:23:44 18:34:26 53° 315° (NW) 18:45:33 29.354- 29.394
CUBESAT XI-V 31 Aug 18:28:29 18:32:05 23° 93° (E) 18:35:48 437.345
BRITE-PL 31 Aug 18:41:45 18:43:56 14° 62° (ENE) 18:46:23 437.365/2234.400
Cubesat XI-IV 31 Aug 18:42:33 18:47:53 88° 252° (WSW) 18:53:15 437.490
HO-68 31 Aug 18:53:21 18:56:51 15° 53° (NE) 19:00:42 435.675
AIST 2 31 Aug 19:05:44 19:06:29 10° 326° (NW) 19:07:05 435.215
GOMX 1 31 Aug 19:11:24 19:14:16 17° 63° (ENE) 19:17:25 467.674
AIST 1 31 Aug 19:14:19 19:18:12 32° 75° (ENE) 19:22:09
Cosmos 2491 31 Aug 19:18:35 19:25:13 24° 63° (ENE) 19:32:10 435.465 / 435.565
DOVE 4 31 Aug 19:26:37 19:29:14 15° 62° (ENE) 19:32:06 437.250
CUTE-I 31 Aug 19:28:21 19:33:11 34° 264° (W) 19:37:59 437.470
O/OREOS (USA 219) 31 Aug 19:30:40 19:35:08 64° 110° (ESE) 19:39:40 437.305
STRAND 1 31 Aug 19:48:16 19:52:59 38° 97° (E) 19:57:45 437.568
CUBESAT XI-V 31 Aug 20:05:23 20:09:39 36° 289° (WNW) 20:13:53 437.345
CINEMA 3 31 Aug 20:13:06 20:16:27 20° 65° (ENE) 20:20:02 145.822/145.860
BRITE-PL 31 Aug 20:17:36 20:21:54 62° 260° (W) 20:26:32 437.365/2234.400
CUTE 1.7 + AOD 2 31 Aug 20:18:47 20:22:35 32° 71° (ENE) 20:26:25 437.475
Cubesat XI-IV 31 Aug 20:27:55 20:28:53 10° 274° (W) 20:29:28 437.490
CANX-2 31 Aug 20:32:21 20:36:30 50° 74° (ENE) 20:40:41 2200.000
HO-68 31 Aug 20:36:23 20:43:29 72° 71° (ENE) 20:50:40 435.675
PRISM 31 Aug 20:37:26 20:41:34 89° 101° (E) 20:45:41 437.425
RS-15 31 Aug 20:41:44 20:50:26 24° 347° (NNW) 20:59:19 29.354- 29.394
GOMX 1 31 Aug 20:47:33 20:51:56 53° 261° (W) 20:56:40 467.674
AIST 1 31 Aug 20:52:25 20:55:41 20° 271° (W) 20:58:50
SEEDS 31 Aug 20:54:08 20:58:20 63° 75° (ENE) 21:02:33 437.485
Oscar 11 31 Aug 20:59:41 21:03:00 22° 68° (ENE) 21:06:25 145.826/435.025
DOVE 4 31 Aug 21:01:53 21:06:25 63° 260° (W) 21:11:17 437.250
O/OREOS (USA 219) 31 Aug 21:12:19 21:15:05 15° 309° (NW) 21:17:43 437.305
Cosmos 2491 31 Aug 21:14:23 21:23:08 75° 265° (W) 21:31:52 435.465 / 435.565
COMPASS 1 31 Aug 21:16:21 21:20:34 87° 83° (E) 21:24:48 437.405
YUBILEINY 31 Aug 21:21:35 21:30:03 57° 91° (E) 21:38:39 435.215
AAUSAT CUBESAT 2 31 Aug 21:26:44 21:30:56 85° 259° (W) 21:35:09 437.432
STRAND 1 31 Aug 21:27:48 21:32:04 27° 294° (WNW) 21:36:14 437.568
CUBEBUG 2 31 Aug 21:40:04 21:44:40 67° 74° (ENE) 21:49:24 437.445
ZACube-1 31 Aug 21:41:17 21:45:31 40° 72° (ENE) 21:49:51 437.345
FUNcube-1 31 Aug 21:46:40 21:50:58 44° 73° (ENE) 21:55:22 145.935
UWE-3 31 Aug 21:47:27 21:51:59 62° 74° (ENE) 21:56:37 435.000/436.395/437.385
CINEMA 3 31 Aug 21:48:46 21:53:17 47° 263° (W) 21:58:00 145.822/145.860
DELFI C3 31 Aug 21:52:10 21:56:05 50° 74° (ENE) 22:00:01 145.870
CUTE 1.7 + AOD 2 31 Aug 21:55:07 21:58:33 22° 267° (W) 22:01:53 437.475
CANX-2 31 Aug 22:10:20 22:12:45 14° 270° (W) 22:15:01 2200.000
Cosmos 2504 31 Aug 22:15:23 22:19:32 16° 77° (ENE) 22:24:18 435.465 / 435.565
HO-68 31 Aug 22:26:37 22:31:58 21° 270° (W) 22:37:03 435.675
DX 1 31 Aug 22:27:05 22:30:48 29° 69° (ENE) 22:34:36 434.975-435.025
HUMSAT D 31 Aug 22:27:29 22:31:38 49° 73° (ENE) 22:35:51 437.325/437.525
50 SAT 31 Aug 22:32:41 22:35:46 23° 69° (ENE) 22:38:56 437.505
SEEDS 31 Aug 22:33:10 22:34:36 11° 272° (W) 22:35:47 437.485
Oscar 11 31 Aug 22:35:02 22:39:00 34° 264° (W) 22:42:58 145.826/435.025
ESTCUBE 1 31 Aug 22:35:56 22:38:54 18° 66° (ENE) 22:42:00 437.505/2401.250
UKube-1 31 Aug 22:39:39 22:43:33 35° 70° (ENE) 22:47:32 .
AISAT 31 Aug 22:48:31 22:52:24 32° 70° (ENE) 22:56:23 437.250
CUBEBUG 1 31 Aug 22:50:19 22:53:24 20° 67° (ENE) 22:56:37 437.445
RS-15 31 Aug 22:58:45 23:08:04 27° 21° (NNE) 23:17:56 29.354- 29.394
UNISAT 6 31 Aug 23:00:20 23:04:03 25° 93° (E) 23:07:45 437.425
QB50P1 31 Aug 23:11:23 23:11:57 10° 87° (E) 23:12:48 145.935-145.965
Cosmos 2491 31 Aug 23:14:29 23:18:40 14° 283° (WNW) 23:22:13 435.465 / 435.565
VELOX 1 31 Aug 23:16:16 23:20:35 62° 74° (ENE) 23:24:58 145.980
ZACube-1 31 Aug 23:18:38 23:22:03 20° 269° (W) 23:25:23 437.345
BEESAT 3 31 Aug 23:18:50 23:21:53 21° 44° (NE) 23:24:59 437.485
YUBILEINY 31 Aug 23:19:40 23:27:25 32° 292° (WNW) 23:35:03 435.215
CUBEBUG 2 31 Aug 23:19:43 23:21:55 13° 273° (W) 23:23:52 437.445
FUNcube-1 31 Aug 23:24:20 23:27:32 18° 269° (W) 23:30:38 145.935
UWE-3 31 Aug 23:26:37 23:29:00 13° 272° (W) 23:31:11 435.000/436.395/437.385
TIGRISAT 31 Aug 23:28:28 23:32:54 47° 99° (E) 23:37:12 435.000
DELFI C3 31 Aug 23:29:37 23:31:30 13° 271° (W) 23:33:12 145.870
BEESAT 2 31 Aug 23:30:45 23:33:51 21° 44° (NE) 23:36:58 435.950
ANTELSAT 31 Aug 23:45:26 23:50:02 75° 102° (ESE) 23:54:29 437.575/2403.000
TISAT 1 31 Aug 23:51:04 23:53:34 16° 65° (ENE) 23:56:13 437.305
Cosmos 2504 01 Sep 00:02:21 00:10:28 81° 96° (E) 00:19:05 435.465 / 435.565
DX 1 01 Sep 00:03:26 00:07:03 25° 265° (W) 00:10:38 434.975-435.025
HUMSAT D 01 Sep 00:05:07 00:07:41 15° 270° (W) 00:10:06 437.325/437.525
50 SAT 01 Sep 00:06:46 00:10:11 27° 265° (W) 00:13:34 437.505
AIST 2 01 Sep 00:07:20 00:09:14 13° 37° (NE) 00:11:16 435.215
POLYITAN 1 01 Sep 00:09:51 00:14:03 49° 99° (E) 00:18:13 437.675
AUBIESAT-1 01 Sep 00:11:05 00:15:03 79° 106° (ESE) 00:18:41 437.475
ESTCUBE 1 01 Sep 00:11:08 00:15:27 45° 261° (W) 00:19:47 437.505/2401.250
POPSAT HIP 1 01 Sep 00:12:27 00:16:40 51° 99° (E) 00:20:51 437.405
DUCHIFAT 1 01 Sep 00:12:57 00:17:08 50° 99° (E) 00:21:18 145.980
M-CUBED/EXP-1 PRIME 01 Sep 00:16:23 00:20:25 74° 288° (WNW) 00:24:04 437.505
UKube-1 01 Sep 00:16:33 00:19:49 20° 267° (W) 00:22:59 .
SPROUT 01 Sep 00:20:44 00:24:55 57° 74° (ENE) 00:29:10 437.525
BUGSAT 1 01 Sep 00:20:51 00:24:50 38° 98° (E) 00:28:50 437.445
AISAT 01 Sep 00:25:28 00:29:03 23° 266° (W) 00:32:33 437.250
CUBEBUG 1 01 Sep 00:25:30 00:29:32 38° 263° (W) 00:33:34 437.445
QB50P2 01 Sep 00:29:21 00:33:41 84° 103° (ESE) 00:37:58 145.880/145.840
NANOSAT C BR1 01 Sep 00:30:23 00:34:42 82° 102° (ESE) 00:38:59 145.865
UNISAT 6 01 Sep 00:36:47 00:40:53 32° 291° (WNW) 00:44:50 437.425
SO-50 01 Sep 00:37:25 00:40:36 18° 111° (ESE) 00:44:01 436.795
BEESAT 01 Sep 00:40:38 00:41:48 11° 61° (ENE) 00:43:13 436.000
QB50P1 01 Sep 00:44:05 00:48:23 69° 285° (WNW) 00:52:37 145.935-145.965
CUSAT 1 01 Sep 00:51:38 00:55:28 81° 279° (W) 01:00:42 437.405
VELOX 1 01 Sep 00:55:44 00:57:38 12° 271° (W) 00:59:18 145.980
BEESAT 3 01 Sep 00:56:11 01:00:00 41° 243° (WSW) 01:03:44 437.485
SWISSCUBE 01 Sep 01:04:04 01:07:29 21° 65° (ENE) 01:11:02 437.505
TIGRISAT 01 Sep 01:06:08 01:09:17 18° 295° (WNW) 01:12:15 435.000
BEESAT 2 01 Sep 01:08:14 01:12:05 42° 243° (WSW) 01:15:51 435.950
RS-15 01 Sep 01:11:44 01:23:28 66° 50° (NE) 01:35:39 29.354- 29.394
DANDE 01 Sep 01:20:10 01:23:35 64° 283° (WNW) 01:28:11 436.750
ANTELSAT 01 Sep 01:24:21 01:26:12 12° 298° (WNW) 01:27:49 437.575/2403.000
TISAT 1 01 Sep 01:24:55 01:28:58 47° 261° (W) 01:33:04 437.305
PCSat 01 Sep 01:37:37 01:42:08 29° 110° (ESE) 01:46:47 145.827
ITUPSAT 1 01 Sep 01:41:23 01:45:51 42° 71° (ENE) 01:50:21 437.325
AIST 2 01 Sep 01:44:17 01:48:29 89° 56° (NE) 01:52:36 435.215
POLYITAN 1 01 Sep 01:46:53 01:49:35 16° 295° (WNW) 01:52:06 437.675
POPSAT HIP 1 01 Sep 01:49:34 01:52:08 15° 295° (WNW) 01:54:33 437.405
DUCHIFAT 1 01 Sep 01:49:57 01:52:33 16° 295° (WNW) 01:55:01 145.980
BUGSAT 1 01 Sep 01:56:57 02:00:04 20° 293° (WNW) 02:03:04 437.445
Cosmos 2504 01 Sep 01:57:36 02:03:54 22° 298° (WNW) 02:10:04 435.465 / 435.565
SPROUT 01 Sep 01:59:25 02:01:26 13° 271° (W) 02:03:14 437.525
GONETS M04 01 Sep 02:10:55 02:17:36 27° 83° (E) 02:24:35
BEESAT 01 Sep 02:14:12 02:18:59 89° 259° (W) 02:23:47 436.000
SO-50 01 Sep 02:16:00 02:20:44 57° 307° (NW) 02:25:37 436.795
Oscar 19 01 Sep 02:40:26 02:45:40 73° 102° (ESE) 02:50:51 437.125/150
SWISSCUBE 01 Sep 02:40:30 02:45:04 45° 261° (W) 02:49:38 437.505
Cosmos 2499 01 Sep 03:02:07 03:05:28 13° 76° (ENE) 03:09:32 435.465 / 435.565
STARS 01 Sep 03:05:41 03:09:31 30° 69° (ENE) 03:13:27 437.465
VERMONT LUNAR 01 Sep 03:15:42 03:17:04 13° 151° (SSE) 03:18:30 437.305
PCSat 01 Sep 03:20:16 03:25:24 42° 307° (NW) 03:30:33 145.827
ITUPSAT 1 01 Sep 03:20:17 03:23:56 21° 267° (W) 03:27:28 437.325
Gurwin Techsat 1B 01 Sep 03:22:09 03:27:23 56° 100° (E) 03:32:36 435.225
AO-7 01 Sep 03:23:26 03:25:40 12° 84° (E) 03:28:39 29.400- 29.500
KKS-1 01 Sep 03:23:55 03:28:21 81° 76° (ENE) 03:32:51 437.445
RS-15 01 Sep 03:24:47 03:35:34 40° 251° (WSW) 03:46:19 29.354- 29.394
MOZHAYETS 4 01 Sep 03:38:45 03:41:43 18° 65° (ENE) 03:44:49
ITAMSAT 1 01 Sep 03:39:30 03:44:39 65° 101° (E) 03:49:49 435.822/435.867
JAS-2 01 Sep 03:52:28 03:59:18 52° 97° (E) 04:05:20 435.910
SO-50 01 Sep 04:00:27 04:02:26 12° 329° (NNW) 04:04:16 436.795
O/OREOS (USA 219) 01 Sep 04:02:27 04:05:05 15° 51° (NE) 04:07:52 437.305
GONETS M04 01 Sep 04:05:12 04:13:50 65° 282° (WNW) 04:22:30
Oscar 19 01 Sep 04:21:25 04:24:28 15° 298° (WNW) 04:27:19 437.125/150
HORYU 2 01 Sep 04:27:01 04:30:35 23° 94° (E) 04:34:12 437.375
STARS 01 Sep 04:42:18 04:45:59 25° 266° (W) 04:49:37 437.465
Cosmos 2499 01 Sep 04:48:47 04:57:10 72° 94° (E) 05:06:00 435.465 / 435.565
VERMONT LUNAR 01 Sep 04:50:12 04:53:04 44° 165° (SSE) 04:55:56 437.305
Gurwin Techsat 1B 01 Sep 05:03:08 05:06:59 20° 296° (WNW) 05:10:41 435.225
AO-7 01 Sep 05:11:59 05:20:16 68° 104° (ESE) 05:28:30 29.400- 29.500
MOZHAYETS 4 01 Sep 05:14:06 05:18:35 50° 261° (W) 05:23:05
ITAMSAT 1 01 Sep 05:20:21 05:23:42 17° 298° (WNW) 05:26:51 435.822/435.867
CUBESAT XI-V 01 Sep 05:32:21 05:35:54 23° 68° (ENE) 05:39:33 437.345
PHONESAT 2.4 01 Sep 05:37:26 05:39:42 17° 151° (SSE) 05:42:00 2401.200-2431.200
JAS-2 01 Sep 05:38:02 05:43:59 29° 298° (WNW) 05:49:16 435.910
O/OREOS (USA 219) 01 Sep 05:40:28 05:45:03 65° 251° (WSW) 05:49:34 437.305
HORYU 2 01 Sep 06:03:16 06:07:16 32° 291° (WNW) 06:11:13 437.375
CUTE-I 01 Sep 06:07:38 06:08:53 11° 86° (E) 06:10:31 437.470
GONETS M04 01 Sep 06:09:00 06:12:56 13° 307° (NW) 06:16:16
VERMONT LUNAR 01 Sep 06:26:23 06:29:22 72° 182° (S) 06:32:20 437.305
Cosmos 2499 01 Sep 06:44:12 06:51:17 27° 296° (WNW) 06:58:20 435.465 / 435.565
Cubesat XI-IV 01 Sep 06:59:50 07:04:43 36° 97° (E) 07:09:38 437.490
STRAND 1 01 Sep 07:04:15 07:09:14 56° 72° (ENE) 07:14:14 437.568
AO-7 01 Sep 07:05:37 07:12:31 29° 303° (WNW) 07:19:12 29.400- 29.500
CUBESAT XI-V 01 Sep 07:08:55 07:13:10 36° 264° (W) 07:17:24 437.345
PHONESAT 2.4 01 Sep 07:13:51 07:17:10 52° 167° (SSE) 07:20:30 2401.200-2431.200
PRISM 01 Sep 07:27:20 07:31:23 66° 75° (ENE) 07:35:27 437.425
YUBILEINY 01 Sep 07:31:53 07:39:09 29° 66° (ENE) 07:46:35 435.215
CUTE-I 01 Sep 07:44:27 07:49:48 88° 292° (WNW) 07:55:09 437.470
AIST 1 01 Sep 07:44:55 07:47:50 19° 88° (E) 07:50:53
VERMONT LUNAR 01 Sep 08:02:51 08:05:38 36° 198° (SSW) 08:08:24 437.305
HO-68 01 Sep 08:07:18 08:09:24 12° 84° (E) 08:12:05 435.675
Cosmos 2491 01 Sep 08:21:06 08:27:47 27° 83° (E) 08:34:45 435.465 / 435.565
BRITE-PL 01 Sep 08:21:08 08:26:25 45° 97° (E) 08:31:53 437.365/2234.400
Cubesat XI-IV 01 Sep 08:40:08 08:44:44 30° 293° (WNW) 08:49:15 437.490
STRAND 1 01 Sep 08:45:26 08:48:51 17° 270° (W) 08:52:05 437.568
GOMX 1 01 Sep 08:48:26 08:53:43 49° 98° (E) 08:59:03 467.674
PHONESAT 2.4 01 Sep 08:51:33 08:54:56 73° 184° (S) 08:58:21 2401.200-2431.200
DOVE 4 01 Sep 09:00:31 09:05:28 39° 96° (E) 09:10:24 437.250
COMPASS 1 01 Sep 09:01:06 09:03:05 13° 89° (E) 09:05:16 437.405
ISS 01 Sep 09:05:35 09:08:42 45° 139° (SE) 09:11:50 145.825
SO-50 01 Sep 09:07:30 09:11:21 22° 41° (NE) 09:15:13 436.795
AAUSAT CUBESAT 2 01 Sep 09:10:46 09:13:00 15° 90° (E) 09:15:24 437.432
AIST 1 01 Sep 09:21:23 09:25:16 33° 284° (WNW) 09:29:09
AUBIESAT-1 01 Sep 09:25:39 09:27:54 14° 58° (ENE) 09:30:20 437.475
CUTE-I 01 Sep 09:26:51 09:29:12 13° 301° (WNW) 09:31:18 437.470
YUBILEINY 01 Sep 09:28:01 09:36:45 65° 267° (W) 09:45:22 435.215
M-CUBED/EXP-1 PRIME 01 Sep 09:30:24 09:33:31 18° 60° (ENE) 09:36:45 437.505
CUBEBUG 2 01 Sep 09:32:42 09:35:10 15° 88° (E) 09:37:49 437.445
CUTE 1.7 + AOD 2 01 Sep 09:38:57 09:43:09 60° 100° (E) 09:47:19 437.475
UWE-3 01 Sep 09:39:16 09:41:10 13° 87° (E) 09:43:18 435.000/436.395/437.385
CINEMA 3 01 Sep 09:43:22 09:48:09 43° 97° (E) 09:52:48 145.822/145.860
CUSAT 1 01 Sep 09:44:29 09:49:21 18° 61° (ENE) 09:54:51 437.405
Cosmos 2504 01 Sep 09:49:37 09:56:34 28° 66° (ENE) 10:03:26 435.465 / 435.565
HO-68 01 Sep 09:51:18 09:58:32 74° 104° (ESE) 10:05:44 435.675
CANX-2 01 Sep 09:53:01 09:57:16 83° 284° (WNW) 10:01:28 2200.000
UNISAT 6 01 Sep 09:59:23 10:03:06 24° 68° (ENE) 10:06:57 437.425
BRITE-PL 01 Sep 10:00:07 10:04:42 27° 292° (WNW) 10:09:18 437.365/2234.400
SEEDS 01 Sep 10:13:47 10:17:57 67° 285° (WNW) 10:22:04 437.485
DANDE 01 Sep 10:14:51 10:20:12 21° 64° (ENE) 10:26:21 436.750
Cosmos 2491 01 Sep 10:15:23 10:24:02 66° 282° (WNW) 10:32:41 435.465 / 435.565
Oscar 11 01 Sep 10:21:46 10:25:51 40° 98° (E) 10:29:55 145.826/435.025
PCSat 01 Sep 10:24:42 10:29:15 27° 47° (NE) 10:33:51 145.827
TIGRISAT 01 Sep 10:26:57 10:31:22 43° 71° (ENE) 10:35:51 435.000
GOMX 1 01 Sep 10:27:10 10:31:33 24° 294° (WNW) 10:35:49 467.674
PHONESAT 2.4 01 Sep 10:29:28 10:32:38 37° 200° (SSW) 10:35:49 2401.200-2431.200
COMPASS 1 01 Sep 10:35:04 10:39:06 49° 287° (WNW) 10:43:05 437.405
DOVE 4 01 Sep 10:38:31 10:43:02 28° 292° (WNW) 10:47:27 437.250
ISS 01 Sep 10:42:22 10:45:14 27° 337° (NNW) 10:48:06 145.825
ANTELSAT 01 Sep 10:43:59 10:48:38 68° 75° (ENE) 10:53:21 437.575/2403.000
AAUSAT CUBESAT 2 01 Sep 10:44:55 10:48:53 45° 287° (WNW) 10:52:48 437.432
SO-50 01 Sep 10:47:26 10:52:19 59° 241° (WSW) 10:57:03 436.795
AUBIESAT-1 01 Sep 10:57:19 11:02:05 79° 253° (WSW) 11:06:45 437.475
POLYITAN 1 01 Sep 11:02:54 11:06:50 38° 71° (ENE) 11:10:51 437.675
M-CUBED/EXP-1 PRIME 01 Sep 11:03:09 11:07:54 60° 255° (WSW) 11:12:35 437.505
POPSAT HIP 1 01 Sep 11:05:17 11:09:14 39° 72° (ENE) 11:13:15 437.405
DUCHIFAT 1 01 Sep 11:05:21 11:09:15 38° 71° (ENE) 11:13:13 145.980
DELFI C3 01 Sep 11:05:33 11:09:34 85° 102° (ESE) 11:13:33 145.870
ZACube-1 01 Sep 11:05:41 11:10:13 82° 101° (ESE) 11:14:36 437.345
CUBEBUG 2 01 Sep 11:07:42 11:12:20 57° 286° (WNW) 11:16:47 437.445
VELOX 1 01 Sep 11:08:39 11:10:05 12° 88° (E) 11:11:45 145.980
FUNcube-1 01 Sep 11:10:51 11:15:23 90° 321° (NW) 11:19:46 145.935
BUGSAT 1 01 Sep 11:11:21 11:14:46 27° 69° (ENE) 11:18:17 437.445
UWE-3 01 Sep 11:13:40 11:18:14 62° 286° (WNW) 11:22:39 435.000/436.395/437.385
CUTE 1.7 + AOD 2 01 Sep 11:16:39 11:18:36 13° 296° (WNW) 11:20:21 437.475
CINEMA 3 01 Sep 11:21:08 11:25:03 23° 294° (WNW) 11:28:47 145.822/145.860
QB50P2 01 Sep 11:22:06 11:26:18 64° 75° (ENE) 11:30:34 145.880/145.840
NANOSAT C BR1 01 Sep 11:22:44 11:26:55 61° 74° (ENE) 11:31:08 145.865
CUSAT 1 01 Sep 11:25:15 11:33:05 79° 79° (E) 11:41:21 437.405
YUBILEINY 01 Sep 11:29:28 11:32:00 11° 286° (WNW) 11:33:46 435.215
UNISAT 6 01 Sep 11:35:22 11:39:43 36° 264° (W) 11:44:03 437.425
QB50P1 01 Sep 11:36:33 11:40:49 90° 40° (NE) 11:45:07 145.935-145.965
HO-68 01 Sep 11:40:10 11:45:40 24° 302° (WNW) 11:50:56 435.675
Cosmos 2504 01 Sep 11:41:09 11:49:33 64° 268° (W) 11:57:23 435.465 / 435.565
50 SAT 01 Sep 11:41:11 11:44:36 30° 96° (E) 11:48:01 437.505
HUMSAT D 01 Sep 11:46:42 11:50:58 89° 272° (W) 11:55:09 437.325/437.525
DX 1 01 Sep 11:50:31 11:54:49 52° 100° (E) 11:59:07 434.975-435.025
DANDE 01 Sep 11:56:32 12:04:10 89° 262° (W) 12:12:45 436.750
Oscar 11 01 Sep 11:58:42 12:01:45 19° 294° (WNW) 12:04:40 145.826/435.025
UKube-1 01 Sep 12:02:17 12:06:37 64° 101° (ESE) 12:10:55 .
ESTCUBE 1 01 Sep 12:03:29 12:07:36 35° 97° (E) 12:11:45 437.505/2401.250
TIGRISAT 01 Sep 12:04:52 12:08:20 20° 269° (W) 12:11:41 435.000
PCSat 01 Sep 12:07:43 12:12:57 49° 247° (WSW) 12:18:07 145.827
CUBEBUG 1 01 Sep 12:13:44 12:17:51 37° 97° (E) 12:21:58 437.445
AISAT 01 Sep 12:14:36 12:19:05 64° 101° (E) 12:23:33 437.250
Cosmos 2491 01 Sep 12:19:09 12:23:07 13° 306° (NW) 12:26:30 435.465 / 435.565
ISS 01 Sep 12:20:33 12:22:27 14° 357° (N) 12:24:19 145.825
GONETS M04 01 Sep 12:21:12 12:24:37 13° 54° (NE) 12:28:41
Oscar 19 01 Sep 12:21:14 12:23:50 15° 61° (ENE) 12:26:41 437.125/150
ANTELSAT 01 Sep 12:23:49 12:25:58 13° 273° (W) 12:27:52 437.575/2403.000
POLYITAN 1 01 Sep 12:39:50 12:42:55 19° 268° (W) 12:45:53 437.675
DUCHIFAT 1 01 Sep 12:42:11 12:45:14 18° 268° (W) 12:48:09 145.980
POPSAT HIP 1 01 Sep 12:42:19 12:45:18 18° 269° (W) 12:48:11 437.405
VELOX 1 01 Sep 12:42:42 12:47:09 67° 286° (WNW) 12:51:34 145.980
ZACube-1 01 Sep 12:44:45 12:45:55 11° 298° (WNW) 12:46:50 437.345
BUGSAT 1 01 Sep 12:46:51 12:50:13 24° 266° (W) 12:53:33 437.445
QB50P2 01 Sep 13:01:20 13:02:42 11° 272° (W) 13:03:50 145.880/145.840
NANOSAT C BR1 01 Sep 13:01:41 13:03:13 11° 272° (W) 13:04:32 145.865
Gurwin Techsat 1B 01 Sep 13:07:23 13:09:27 13° 60° (ENE) 13:11:46 435.225
CUSAT 1 01 Sep 13:09:03 13:15:05 23° 274° (W) 13:20:58 437.405
TISAT 1 01 Sep 13:09:18 13:12:51 26° 95° (E) 13:16:28 437.305
50 SAT 01 Sep 13:16:06 13:18:57 19° 292° (WNW) 13:21:42 437.505
ITAMSAT 1 01 Sep 13:21:36 13:23:59 14° 60° (ENE) 13:26:37 435.822/435.867
DX 1 01 Sep 13:28:00 13:30:41 16° 296° (WNW) 13:33:13 434.975-435.025
Cosmos 2504 01 Sep 13:38:00 13:40:08 11° 286° (WNW) 13:41:34 435.465 / 435.565
UKube-1 01 Sep 13:40:12 13:42:16 13° 297° (WNW) 13:44:09 .
ESTCUBE 1 01 Sep 13:40:44 13:44:18 23° 293° (WNW) 13:47:46 437.505/2401.250
DANDE 01 Sep 13:41:21 13:46:44 20° 275° (W) 13:52:04 436.750
SPROUT 01 Sep 13:42:52 13:47:13 74° 285° (WNW) 13:51:32 437.525
CUBEBUG 1 01 Sep 13:50:36 13:53:59 21° 293° (WNW) 13:57:16 437.445
AISAT 01 Sep 13:52:51 13:55:11 14° 297° (WNW) 13:57:19 437.250
ISS 01 Sep 13:57:14 13:59:45 20° 17° (NNE) 14:02:17 145.825
Oscar 19 01 Sep 13:57:26 14:02:36 78° 256° (WSW) 14:07:50 437.125/150
JAS-2 01 Sep 14:03:34 14:09:53 30° 62° (ENE) 14:16:27 435.910
BEESAT 01 Sep 14:14:54 14:18:35 23° 93° (E) 14:22:22 436.000
GONETS M04 01 Sep 14:14:58 14:23:44 65° 78° (ENE) 14:32:30
AO-7 01 Sep 14:21:32 14:27:20 22° 53° (NE) 14:33:23 29.400- 29.500
SWISSCUBE 01 Sep 14:40:21 14:44:54 44° 99° (E) 14:49:27 437.505
Cosmos 2499 01 Sep 14:41:00 14:47:59 27° 64° (ENE) 14:54:50 435.465 / 435.565
Gurwin Techsat 1B 01 Sep 14:43:25 14:48:43 88° 85° (E) 14:54:06 435.225
TISAT 1 01 Sep 14:44:54 14:48:35 28° 291° (WNW) 14:52:11 437.305
BEESAT 3 01 Sep 14:48:32 14:52:06 30° 115° (ESE) 14:55:43 437.485
ITAMSAT 1 01 Sep 14:57:42 15:02:53 82° 255° (WSW) 15:08:06 435.822/435.867
BEESAT 2 01 Sep 15:01:33 15:05:09 31° 116° (ESE) 15:08:51 435.950
KKS-1 01 Sep 15:16:07 15:18:43 15° 90° (E) 15:21:29 437.445
ITUPSAT 1 01 Sep 15:19:05 15:23:52 83° 284° (WNW) 15:28:37 437.325
HORYU 2 01 Sep 15:25:33 15:29:06 24° 67° (ENE) 15:32:44 437.375
ISS 01 Sep 15:33:16 15:36:32 90° 322° (NW) 15:39:47 145.825
RS-15 01 Sep 15:36:52 15:46:17 37° 108° (ESE) 15:56:16 29.354- 29.394
AIST 2 01 Sep 15:43:22 15:46:13 18° 112° (ESE) 15:49:11 435.215
JAS-2 01 Sep 15:46:45 15:54:23 66° 260° (W) 16:02:14 435.910
BEESAT 01 Sep 15:52:09 15:56:34 38° 290° (WNW) 16:00:56 436.000
AO-7 01 Sep 16:10:49 16:19:11 90° 72° (ENE) 16:27:35 29.400- 29.500
GONETS M04 01 Sep 16:12:52 16:19:59 27° 277° (W) 16:26:50
SWISSCUBE 01 Sep 16:18:56 16:22:28 21° 295° (WNW) 16:25:53 437.505
BEESAT 3 01 Sep 16:26:30 16:30:01 27° 313° (NW) 16:33:31 437.485
Gurwin Techsat 1B 01 Sep 16:27:57 16:29:34 11° 274° (W) 16:30:48 435.225
STARS 01 Sep 16:30:44 16:35:08 57° 100° (E) 16:39:30 437.465
Cosmos 2499 01 Sep 16:33:25 16:42:01 67° 267° (W) 16:49:58 435.465 / 435.565
BEESAT 2 01 Sep 16:39:41 16:43:13 26° 313° (NW) 16:46:44 435.950
KKS-1 01 Sep 16:51:19 16:55:41 50° 288° (WNW) 17:00:02 437.445
HORYU 2 01 Sep 17:01:28 17:05:35 34° 263° (W) 17:09:40 437.375
MOZHAYETS 4 01 Sep 17:09:00 17:13:13 36° 97° (E) 17:17:26
ISS 01 Sep 17:12:12 17:12:31 10° 230° (SW) 17:12:42 145.825
